Location: Grandview
(34.8900°N, 117.1058°W)
Time: 15:24:39
(UTC-07:00)

Vanguard 2 - All Passes

Search period start: 20 April 2018 00:00
Search period end: 30 April 2018 00:00
Orbit: 553 x 2939 km, 32.9° (Epoch: 20 April)

Date Brightness Start Highest point End Pass type
(mag) Time Alt. Az. Time Alt. Az. Time Alt. Az.
20 Apr - 01:00:15 10° WSW 01:06:44 66° S 01:11:05 10° E night (unlit)
20 Apr - 03:10:21 10° W 03:14:50 57° SSW 03:18:42 10° ESE visible
20 Apr - 05:19:49 10° WSW 05:22:36 18° SSW 05:25:37 10° SSE visible
20 Apr - 20:58:18 10° SSW 21:06:39 23° SSE 21:12:36 10° ESE visible
20 Apr - 23:07:29 10° SW 23:16:10 47° SSE 23:21:33 10° E visible
21 Apr - 01:18:27 10° W 01:24:47 71° S 01:29:06 10° E night (unlit)
21 Apr - 03:28:32 10° W 03:32:49 44° SSW 03:36:35 10° ESE visible
21 Apr - 05:39:11 10° SW 05:40:32 11° SSW 05:41:56 10° S visible
21 Apr - 19:11:26 10° SSE 19:14:27 11° SSE 19:17:12 10° SE daylight
21 Apr - 21:15:04 10° SSW 21:24:52 30° SSE 21:31:22 10° E visible
21 Apr - 23:25:28 10° WSW 23:34:17 58° SSE 23:39:39 10° E visible
22 Apr - 01:36:42 10° W 01:42:51 72° S 01:47:06 10° E night (unlit)
22 Apr - 03:46:49 10° W 03:50:44 32° SSW 03:54:18 10° SE visible
22 Apr - 19:24:54 10° S 19:32:45 17° SSE 19:38:58 10° ESE daylight
22 Apr - 21:32:20 10° SW 21:43:03 39° SSE 21:49:48 10° E visible
22 Apr - 23:43:37 10° WSW 23:52:22 67° S 23:57:41 10° E visible
23 Apr - 01:54:57 10° W 02:00:54 66° S 02:05:04 10° ESE night (unlit)
23 Apr - 04:05:16 10° WSW 04:08:37 22° SSW 04:11:43 10° SSE visible
23 Apr - 19:40:40 10° SSW 19:51:00 24° SSE 19:58:32 10° ESE visible
23 Apr - 21:49:58 10° SW 22:01:13 49° SSE 22:08:02 10° E visible
24 Apr - 00:01:52 10° WSW 00:10:29 73° S 00:15:42 10° E visible
24 Apr - 02:13:13 10° W 02:18:54 55° SSW 02:23:00 10° ESE night (unlit)
24 Apr - 04:24:11 10° WSW 04:26:26 14° SSW 04:28:35 10° S visible
24 Apr - 17:54:32 10° SSE 17:58:17 11° SE 18:01:44 10° SE daylight
24 Apr - 19:57:15 10° SSW 20:09:14 32° SSE 20:17:24 10° E visible
24 Apr - 22:07:54 10° WSW 22:19:22 59° SSE 22:26:09 10° E visible
25 Apr - 00:20:11 10° W 00:28:35 76° S 00:33:42 10° E visible
25 Apr - 02:31:30 10° W 02:36:50 42° SSW 02:40:46 10° SE night (unlit)
25 Apr - 18:07:33 10° S 18:16:33 17° SSE 18:23:58 10° ESE daylight
25 Apr - 20:14:23 10° SW 20:27:26 40° SSE 20:35:54 10° E visible
25 Apr - 22:26:01 10° WSW 22:37:31 68° S 22:44:12 10° E visible
26 Apr - 00:38:31 10° W 00:46:41 73° S 00:51:41 10° ESE visible
26 Apr - 02:49:53 10° W 02:54:41 31° SSW 02:58:23 10° SE night (unlit)
26 Apr - 18:23:01 10° SSW 18:34:45 24° SSE 18:43:49 10° E daylight
26 Apr - 20:31:53 10° SW 20:45:37 50° SSE 20:54:13 10° E visible
26 Apr - 22:44:18 10° WSW 22:55:40 75° S 23:02:15 10° E visible
27 Apr - 00:56:52 10° W 01:04:44 66° SSW 01:09:38 10° ESE visible
27 Apr - 03:08:30 10° W 03:12:26 21° SSW 03:15:39 10° SSE night (unlit)
27 Apr - 16:40:08 10° SE 16:41:42 10° SE 16:43:15 10° SE daylight
27 Apr - 18:39:24 10° SSW 18:52:56 32° SSE 19:02:51 10° E daylight
27 Apr - 20:49:43 10° WSW 21:03:48 59° SSE 21:12:23 10° E visible
27 Apr - 23:02:41 10° W 23:13:50 78° S 23:20:16 10° E visible
28 Apr - 01:15:13 10° W 01:22:42 55° SSW 01:27:29 10° ESE visible
28 Apr - 03:27:42 10° WSW 03:30:06 13° SW 03:32:14 10° S night (unlit)
28 Apr - 16:50:52 10° S 16:59:53 16° SE 17:07:52 10° ESE daylight
28 Apr - 18:56:19 10° SW 19:11:07 40° SSE 19:21:30 10° E daylight
28 Apr - 21:07:47 10° WSW 21:22:00 68° SSE 21:30:29 10° E visible
28 Apr - 23:21:06 10° W 23:31:59 78° S 23:38:16 10° E visible
29 Apr - 01:33:36 10° W 01:40:37 43° SSW 01:45:12 10° SE visible
29 Apr - 17:05:52 10° S 17:17:59 23° SE 17:28:13 10° E daylight
29 Apr - 19:13:40 10° SW 19:29:18 49° SSE 19:39:53 10° E daylight
29 Apr - 21:26:01 10° WSW 21:40:12 75° S 21:48:33 10° E visible
29 Apr - 23:39:31 10° W 23:50:06 75° S 23:56:16 10° ESE visible
